[[{"header":{"parameterUnit":"m.s-1","parameterCategory":1,"la1":30.2992,"la2":30.254,"lo1":-89.0895,"lo2":-89.0443,"dy":0.0025,"dx":0.0025,"nx":19,"ny":19,"refTime":"2026-04-02T09:00:00:Z","depth":0,"parameterNumber":2,"parameterNumberName":"U-component_of_WINDS"},"data":[0,0,0,-5.1802,-5.1806,-5.1992,-5.1992,-5.224,-5.2243,0,0,0,0,0,0,0,0,0,0,0,-5.1753,-5.1755,-5.1802,-5.1806,-5.1992,-5.1992,-5.224,-5.2243,0,0,0,0,0,0,0,0,0,0,0,-5.1752,-5.1755,-5.1757,-5.1807,-5.1992,-5.1993,-5.2239,-5.2095,0,0,0,0,0,0,0,0,0,0,-5.1913,-5.1875,-5.1754,-5.1757,-5.1808,-5.1991,-5.1993,-5.2088,-5.2104,-5.2161,0,-5.2213,0,-5.2232,-5.226,-5.2261,0,0,0,-5.1801,-5.1862,-5.1906,-5.1758,-5.181,-5.1991,-5.1907,-5.2097,-5.2115,-5.2182,-5.2216,-5.2225,-5.2236,-5.2262,-5.2263,-5.2605,-5.2606,0,0,-5.1791,-5.179,-5.1893,-5.1918,-5.189,-5.1901,-5.1912,-5.2108,-5.2145,-5.2217,-5.2231,-5.224,-5.2263,-5.2265,-5.2603,-5.2605,0,0,0,-5.1765,-5.1783,-5.1822,-5.1908,-5.1941,-5.1906,-5.192,-5.2136,-5.2149,-5.2233,-5.2243,-5.2265,-5.2268,-5.2601,-5.2604,-5.2691,0,0,0,-5.1759,-5.1768,-5.1818,-5.1819,-5.1938,-5.2041,-5.1944,-5.2136,-5.2158,-5.2242,-5.2265,-5.227,-5.2599,-5.2602,-5.2685,-5.2732,0,0,0,-5.1739,-5.1765,-5.1795,-5.1819,-5.1899,-5.2038,-5.2062,-5.214,-5.2164,-5.2261,-5.2271,-5.2598,-5.2602,-5.2679,-5.2722,-5.282,0,0,0,-5.1718,-5.1871,-5.1796,-5.1971,-5.1897,-5.2092,-5.206,-5.2205,-5.2299,-5.2266,-5.2599,-5.2603,-5.2677,-5.2716,-5.2814,-5.29,-5.2937,0,0,-5.191,-5.1894,-5.1997,-5.1935,-5.2142,-5.2063,-5.2284,-5.2371,-5.2381,-5.253,-5.2538,-5.2687,-5.2722,-5.2819,-5.3149,-5.3178,0,0,0,-5.2057,-5.2131,-5.2186,-5.2276,-5.2347,-5.2411,-5.2464,-5.2497,-5.2623,-5.2457,-5.275,-5.2771,-5.2828,-5.2869,-5.2894,-5.2942,-5.2623,-5.2623,-5.2622,-5.2325,-5.2331,-5.2501,-5.253,-5.2618,-5.2672,-5.2744,-5.2797,-5.2777,-5.2846,-5.2889,-5.3088,-5.3137,-5.3155,-5.3206,-5.2938,-5.2938,-5.2939,-5.2939,-5.2605,-5.2709,-5.2681,-5.2835,-5.2841,-5.2971,-5.3031,-5.3013,-5.3134,-5.3056,-5.3107,-5.3018,-5.3187,-5.3231,-5.2945,-5.2944,-5.2943,-5.2943,-5.2942,-5.2778,-5.2829,-5.2867,-5.2998,-5.3098,-5.3123,-5.3241,-5.3242,-5.3245,-5.3295,-5.3339,-5.3338,-5.3334,-5.3317,-5.3318,-5.3318,-5.3319,-5.3319,-5.332,-5.2941,-5.2982,-5.3081,-5.3171,-5.3228,-5.3305,-5.3364,-5.3421,-5.3484,-5.3476,-5.3476,-5.3448,-5.3204,-5.314,-5.3331,-5.3329,-5.3327,-5.3326,-5.3326,-5.3217,-5.3156,-5.3309,-5.3367,-5.3472,-5.3571,-5.3573,-5.369,-5.3738,-5.3796,-5.3759,-5.3579,-5.3562,-5.3542,-5.3489,-5.3759,-5.3759,-5.3759,-5.3759,-5.3361,-5.3354,-5.351,-5.3603,-5.3695,-5.3713,-5.3886,-5.3933,-5.3973,-5.4003,-5.3965,-5.3897,-5.3877,-5.3872,-5.3845,-5.3795,-5.4136,-5.4137,-5.4137,-5.3529,-5.3531,-5.3677,-5.3715,-5.3799,-5.387,-5.4032,-5.414,-5.4173,-5.4152,-5.4026,-5.401,-5.39,-5.3864,-5.3836,-5.3795,-5.3704,0,0]},{"header":{"parameterUnit":"m.s-1","parameterCategory":1,"la1":30.2992,"la2":30.254,"lo1":-89.0895,"lo2":-89.0443,"dy":0.0025,"dx":0.0025,"nx":19,"ny":19,"refTime":"2026-04-02T09:00:00:Z","depth":0,"parameterNumber":3,"parameterNumberName":"V-component_of_WINDS"},"data":[0,0,0,1.7958,1.7959,1.8016,1.8016,1.8092,1.8093,0,0,0,0,0,0,0,0,0,0,0,1.7943,1.7944,1.7958,1.7959,1.8016,1.8016,1.8092,1.8093,0,0,0,0,0,0,0,0,0,0,0,1.7943,1.7943,1.7944,1.7959,1.8016,1.8016,1.8092,1.8048,0,0,0,0,0,0,0,0,0,0,1.7992,1.798,1.7943,1.7944,1.796,1.8016,1.8016,1.8045,1.805,1.8068,0,1.8084,0,1.809,1.8098,1.8098,0,0,0,1.7957,1.7976,1.799,1.7944,1.796,1.8016,1.799,1.8048,1.8054,1.8074,1.8085,1.8088,1.8091,1.8098,1.8099,1.8207,1.8208,0,0,1.7954,1.7954,1.7986,1.7993,1.7985,1.7988,1.7992,1.8051,1.8063,1.8085,1.8089,1.8092,1.8099,1.81,1.8207,1.8207,0,0,0,1.7946,1.7952,1.7964,1.799,1.8,1.799,1.7994,1.806,1.8064,1.809,1.8093,1.8099,1.81,1.8206,1.8207,1.8237,0,0,0,1.7944,1.7947,1.7963,1.7963,1.7999,1.8031,1.8001,1.806,1.8067,1.8093,1.8099,1.8101,1.8205,1.8207,1.8235,1.8251,0,0,0,1.7939,1.7946,1.7956,1.7963,1.7987,1.803,1.8037,1.8061,1.8069,1.8098,1.8101,1.8205,1.8206,1.8233,1.8248,1.8281,0,0,0,1.7932,1.7979,1.7956,1.8011,1.7987,1.8048,1.8037,1.8082,1.8111,1.81,1.8206,1.8207,1.8232,1.8246,1.8279,1.8309,1.8322,0,0,1.7992,1.7987,1.8019,1.8,1.8066,1.804,1.811,1.8136,1.8138,1.8184,1.8187,1.8236,1.8248,1.828,1.8391,1.8401,0,0,0,1.8038,1.8062,1.8079,1.8108,1.813,1.8151,1.8166,1.8177,1.8216,1.8162,1.8256,1.8263,1.8283,1.8297,1.8306,1.8323,1.8213,1.8213,1.8213,1.8122,1.8124,1.8179,1.8189,1.8217,1.8235,1.8258,1.8274,1.8266,1.8289,1.8303,1.8369,1.8386,1.8393,1.8411,1.8318,1.8319,1.8319,1.8319,1.8211,1.8245,1.8237,1.8287,1.829,1.8332,1.8351,1.8345,1.8385,1.8358,1.8376,1.8347,1.8404,1.842,1.8321,1.8321,1.832,1.832,1.832,1.8266,1.8283,1.8296,1.834,1.8373,1.8382,1.8422,1.8422,1.8422,1.8439,1.8455,1.8455,1.8455,1.8447,1.8447,1.8447,1.8448,1.8448,1.8448,1.8319,1.8333,1.8366,1.8397,1.8417,1.8443,1.8463,1.8482,1.8504,1.8501,1.8502,1.8493,1.8409,1.8388,1.8452,1.8451,1.845,1.845,1.845,1.8409,1.8389,1.8441,1.8462,1.8499,1.8533,1.8534,1.8575,1.8591,1.8611,1.86,1.8537,1.8531,1.8524,1.8507,1.8598,1.8598,1.8598,1.8598,1.8456,1.8454,1.8509,1.8542,1.8574,1.8582,1.8642,1.8659,1.8673,1.8684,1.8671,1.8648,1.8641,1.864,1.863,1.8614,1.873,1.8731,1.8731,1.8512,1.8514,1.8565,1.858,1.861,1.8636,1.8693,1.8732,1.8743,1.8736,1.8692,1.8687,1.865,1.8638,1.8629,1.8614,1.8585,0,0]}]]